Time,TemperatureF,DewpointF,PressureIn,WindDirection,WindDirectionDegrees,WindSpeedMPH,WindSpeedGustMPH,Humidity,HourlyPrecipIn,Conditions,Clouds,dailyrainin,SolarRadiationWatts/m^2,SoftwareType,DateUTC
2013-06-15 00:00:00,50.7,48.0,29.84,North,-999,0.0,0.0,90,0.00,,,0.00,0,weatherlink.com 1.10,2013-06-15 07:00:00,
2013-06-15 00:15:00,50.6,48.0,29.85,North,360,0.0,0.0,90,0.00,,,0.00,0,weatherlink.com 1.10,2013-06-15 07:15:00,
2013-06-15 00:30:00,50.5,48.0,29.84,North,360,0.0,0.0,90,0.00,,,0.00,0,weatherlink.com 1.10,2013-06-15 07:30:00,
2013-06-15 00:45:00,50.4,48.0,29.84,North,360,0.0,0.0,91,0.00,,,0.00,0,weatherlink.com 1.10,2013-06-15 07:45:00,
2013-06-15 01:00:00,50.3,48.0,29.84,North,360,0.0,0.0,91,0.00,,,0.00,0,weatherlink.com 1.10,2013-06-15 08:00:00,
2013-06-15 01:15:00,50.3,48.0,29.83,North,360,0.0,0.0,91,0.00,,,0.00,0,weatherlink.com 1.10,2013-06-15 08:15:00,
2013-06-15 01:30:00,50.0,48.0,29.83,North,-999,0.0,0.0,91,0.00,,,0.00,0,weatherlink.com 1.10,2013-06-15 08:30:00,
2013-06-15 01:45:00,49.9,47.0,29.83,North,360,0.0,0.0,91,0.00,,,0.00,0,weatherlink.com 1.10,2013-06-15 08:45:00,
2013-06-15 02:00:00,49.9,47.0,29.83,North,-999,0.0,0.0,91,0.00,,,0.00,0,weatherlink.com 1.10,2013-06-15 09:00:00,
2013-06-15 02:15:00,49.7,47.0,29.83,North,-999,0.0,0.0,91,0.00,,,0.00,0,weatherlink.com 1.10,2013-06-15 09:15:00,
2013-06-15 02:30:00,49.7,48.0,29.83,North,-999,0.0,0.0,92,0.00,,,0.00,0,weatherlink.com 1.10,2013-06-15 09:30:00,
2013-06-15 02:45:00,49.5,47.0,29.83,North,-999,0.0,0.0,92,0.00,,,0.00,0,weatherlink.com 1.10,2013-06-15 09:45:00,
2013-06-15 03:00:00,49.4,47.0,29.83,North,-999,0.0,0.0,92,0.00,,,0.00,0,weatherlink.com 1.10,2013-06-15 10:00:00,
2013-06-15 03:15:00,49.3,47.0,29.83,North,-999,0.0,0.0,92,0.00,,,0.00,0,weatherlink.com 1.10,2013-06-15 10:15:00,
2013-06-15 03:30:00,49.3,47.0,29.83,North,360,0.0,0.0,92,0.00,,,0.00,0,weatherlink.com 1.10,2013-06-15 10:30:00,
2013-06-15 03:45:00,49.4,48.0,29.83,North,360,0.0,0.0,93,0.00,,,0.00,0,weatherlink.com 1.10,2013-06-15 10:45:00,
2013-06-15 04:00:00,49.3,47.0,29.83,North,-999,0.0,0.0,92,0.00,,,0.00,0,weatherlink.com 1.10,2013-06-15 11:00:00,
2013-06-15 04:16:00,49.2,47.0,29.84,North,-999,0.0,0.0,92,0.00,,,0.00,0,weatherlink.com 1.10,2013-06-15 11:16:00,
2013-06-15 04:30:00,49.2,47.0,29.84,North,-999,0.0,0.0,92,0.00,,,0.00,0,weatherlink.com 1.10,2013-06-15 11:30:00,
2013-06-15 04:45:00,49.2,47.0,29.84,North,-999,0.0,0.0,93,0.00,,,0.00,0,weatherlink.com 1.10,2013-06-15 11:45:00,
2013-06-15 05:00:00,49.1,47.0,29.84,North,-999,0.0,0.0,92,0.00,,,0.00,0,weatherlink.com 1.10,2013-06-15 12:00:00,
2013-06-15 05:15:00,49.0,47.0,29.84,North,-999,0.0,0.0,93,0.00,,,0.00,0,weatherlink.com 1.10,2013-06-15 12:15:00,
2013-06-15 05:30:00,48.9,47.0,29.85,North,360,0.0,0.0,93,0.00,,,0.00,0,weatherlink.com 1.10,2013-06-15 12:30:00,
2013-06-15 05:45:00,48.8,47.0,29.85,North,360,0.0,0.0,93,0.00,,,0.00,0,weatherlink.com 1.10,2013-06-15 12:45:00,
2013-06-15 06:00:00,48.8,47.0,29.85,North,360,0.0,0.0,93,0.00,,,0.00,5,weatherlink.com 1.10,2013-06-15 13:00:00,
2013-06-15 06:15:00,48.7,47.0,29.86,North,360,0.0,0.0,93,0.00,,,0.00,11,weatherlink.com 1.10,2013-06-15 13:15:00,
2013-06-15 06:30:00,48.8,47.0,29.86,North,360,0.0,0.0,93,0.00,,,0.00,16,weatherlink.com 1.10,2013-06-15 13:30:00,
2013-06-15 06:46:00,48.8,47.0,29.86,North,360,0.0,0.0,93,0.00,,,0.00,25,weatherlink.com 1.10,2013-06-15 13:46:00,
2013-06-15 07:01:00,48.8,47.0,29.87,North,360,0.0,0.0,93,0.00,,,0.00,37,weatherlink.com 1.10,2013-06-15 14:01:00,
2013-06-15 07:16:00,48.8,47.0,29.87,North,360,0.0,0.0,93,0.00,,,0.00,49,weatherlink.com 1.10,2013-06-15 14:16:00,
2013-06-15 07:31:00,48.8,47.0,29.88,North,360,0.0,0.0,93,0.00,,,0.00,62,weatherlink.com 1.10,2013-06-15 14:31:00,
2013-06-15 07:46:00,48.8,47.0,29.88,North,360,0.0,0.0,93,0.00,,,0.00,62,weatherlink.com 1.10,2013-06-15 14:46:00,
2013-06-15 08:01:00,49.2,48.0,29.88,North,360,0.0,0.0,94,0.00,,,0.00,83,weatherlink.com 1.10,2013-06-15 15:01:00,
2013-06-15 08:16:00,49.4,48.0,29.89,North,360,0.0,0.0,93,0.00,,,0.00,79,weatherlink.com 1.10,2013-06-15 15:16:00,
2013-06-15 08:31:00,49.6,48.0,29.89,North,360,0.0,0.0,93,0.00,,,0.00,97,weatherlink.com 1.10,2013-06-15 15:31:00,
2013-06-15 08:46:00,50.0,48.0,29.90,North,360,0.0,0.0,93,0.00,,,0.00,113,weatherlink.com 1.10,2013-06-15 15:46:00,
2013-06-15 09:01:00,50.3,48.0,29.90,North,360,0.0,0.0,92,0.00,,,0.00,118,weatherlink.com 1.10,2013-06-15 16:01:00,
2013-06-15 09:16:00,50.5,48.0,29.91,North,360,0.0,0.0,92,0.00,,,0.00,125,weatherlink.com 1.10,2013-06-15 16:16:00,
2013-06-15 09:31:00,50.4,48.0,29.91,North,-999,0.0,0.0,91,0.00,,,0.00,151,weatherlink.com 1.10,2013-06-15 16:31:00,
2013-06-15 09:46:00,50.7,48.0,29.91,North,360,0.0,0.0,91,0.00,,,0.00,172,weatherlink.com 1.10,2013-06-15 16:46:00,
2013-06-15 10:01:00,51.2,48.0,29.91,North,360,0.0,0.0,90,0.00,,,0.00,207,weatherlink.com 1.10,2013-06-15 17:01:00,
2013-06-15 10:16:00,52.0,49.0,29.91,North,360,0.0,0.0,89,0.00,,,0.00,246,weatherlink.com 1.10,2013-06-15 17:16:00,
2013-06-15 10:31:00,52.4,49.0,29.91,North,360,0.0,0.0,88,0.00,,,0.00,223,weatherlink.com 1.10,2013-06-15 17:31:00,
2013-06-15 10:46:00,52.7,49.0,29.92,North,360,0.0,0.0,87,0.00,,,0.00,237,weatherlink.com 1.10,2013-06-15 17:46:00,
2013-06-15 11:01:00,53.2,50.0,29.92,North,360,0.0,0.0,87,0.00,,,0.00,243,weatherlink.com 1.10,2013-06-15 18:01:00,
2013-06-15 11:16:00,53.5,50.0,29.93,North,360,0.0,0.0,87,0.00,,,0.00,255,weatherlink.com 1.10,2013-06-15 18:16:00,
2013-06-15 11:31:00,53.6,50.0,29.93,North,360,0.0,0.0,86,0.00,,,0.00,253,weatherlink.com 1.10,2013-06-15 18:31:00,
2013-06-15 11:46:00,53.8,50.0,29.94,North,360,0.0,0.0,86,0.00,,,0.00,251,weatherlink.com 1.10,2013-06-15 18:46:00,
2013-06-15 12:01:00,54.1,50.0,29.94,North,-999,0.0,0.0,85,0.00,,,0.00,308,weatherlink.com 1.10,2013-06-15 19:01:00,
2013-06-15 12:16:00,54.2,50.0,29.94,North,360,0.0,0.0,84,0.00,,,0.00,381,weatherlink.com 1.10,2013-06-15 19:16:00,
2013-06-15 12:31:00,54.6,50.0,29.94,North,360,0.0,0.0,84,0.00,,,0.00,320,weatherlink.com 1.10,2013-06-15 19:31:00,
2013-06-15 12:46:00,54.8,50.0,29.95,North,360,0.0,0.0,84,0.00,,,0.00,334,weatherlink.com 1.10,2013-06-15 19:46:00,
2013-06-15 13:01:00,54.9,50.0,29.95,North,360,0.0,0.0,83,0.00,,,0.00,334,weatherlink.com 1.10,2013-06-15 20:01:00,
2013-06-15 13:16:00,54.4,50.0,29.95,North,360,0.0,0.0,84,0.00,,,0.00,327,weatherlink.com 1.10,2013-06-15 20:16:00,
2013-06-15 13:31:00,54.5,50.0,29.95,North,360,0.0,0.0,85,0.00,,,0.00,309,weatherlink.com 1.10,2013-06-15 20:31:00,
2013-06-15 13:46:00,55.2,50.0,29.95,North,-999,0.0,0.0,83,0.00,,,0.00,346,weatherlink.com 1.10,2013-06-15 20:46:00,
2013-06-15 14:01:00,55.1,50.0,29.95,North,360,0.0,0.0,83,0.00,,,0.00,292,weatherlink.com 1.10,2013-06-15 21:01:00,
2013-06-15 14:16:00,54.9,50.0,29.95,North,-999,0.0,0.0,83,0.00,,,0.00,276,weatherlink.com 1.10,2013-06-15 21:16:00,
2013-06-15 14:31:00,55.1,50.0,29.95,North,-999,0.0,0.0,83,0.00,,,0.00,272,weatherlink.com 1.10,2013-06-15 21:31:00,
2013-06-15 14:46:00,54.8,50.0,29.95,North,-999,0.0,0.0,84,0.00,,,0.00,267,weatherlink.com 1.10,2013-06-15 21:46:00,
2013-06-15 15:01:00,54.5,50.0,29.95,North,-999,0.0,0.0,84,0.00,,,0.00,236,weatherlink.com 1.10,2013-06-15 22:01:00,
2013-06-15 15:16:00,54.6,50.0,29.95,North,360,0.0,0.0,85,0.00,,,0.00,202,weatherlink.com 1.10,2013-06-15 22:16:00,
2013-06-15 15:32:00,54.7,50.0,29.95,North,360,0.0,0.0,84,0.00,,,0.00,197,weatherlink.com 1.10,2013-06-15 22:32:00,
2013-06-15 15:47:00,54.2,50.0,29.95,North,360,0.0,0.0,85,0.00,,,0.00,220,weatherlink.com 1.10,2013-06-15 22:47:00,
2013-06-15 16:02:00,53.9,50.0,29.95,North,-999,0.0,0.0,86,0.00,,,0.00,165,weatherlink.com 1.10,2013-06-15 23:02:00,
2013-06-15 16:17:00,53.8,50.0,29.95,North,-999,0.0,0.0,86,0.00,,,0.00,148,weatherlink.com 1.10,2013-06-15 23:17:00,
2013-06-15 16:32:00,53.8,50.0,29.95,North,-999,0.0,0.0,86,0.00,,,0.00,156,weatherlink.com 1.10,2013-06-15 23:32:00,
2013-06-15 16:47:00,53.5,50.0,29.95,North,-999,0.0,0.0,87,0.00,,,0.00,118,weatherlink.com 1.10,2013-06-15 23:47:00,
2013-06-15 17:02:00,53.5,50.0,29.95,North,360,0.0,0.0,87,0.00,,,0.00,114,weatherlink.com 1.10,2013-06-16 00:02:00,
2013-06-15 17:17:00,53.2,50.0,29.95,North,360,0.0,0.0,87,0.00,,,0.00,100,weatherlink.com 1.10,2013-06-16 00:17:00,
2013-06-15 17:32:00,53.0,50.0,29.96,North,360,0.0,0.0,88,0.00,,,0.00,104,weatherlink.com 1.10,2013-06-16 00:32:00,
2013-06-15 17:47:00,52.8,49.0,29.96,North,-999,0.0,0.0,88,0.00,,,0.00,83,weatherlink.com 1.10,2013-06-16 00:47:00,
2013-06-15 18:02:00,52.4,49.0,29.95,North,-999,0.0,0.0,89,0.00,,,0.00,86,weatherlink.com 1.10,2013-06-16 01:02:00,
2013-06-15 18:17:00,52.4,49.0,29.95,North,-999,0.0,0.0,89,0.00,,,0.00,76,weatherlink.com 1.10,2013-06-16 01:17:00,
2013-06-15 18:32:00,52.2,49.0,29.95,North,-999,0.0,0.0,89,0.00,,,0.00,63,weatherlink.com 1.10,2013-06-16 01:32:00,
2013-06-15 18:47:00,52.1,49.0,29.95,North,-999,0.0,0.0,90,0.00,,,0.00,44,weatherlink.com 1.10,2013-06-16 01:47:00,
2013-06-15 19:02:00,51.8,49.0,29.96,North,-999,0.0,0.0,89,0.00,,,0.00,32,weatherlink.com 1.10,2013-06-16 02:02:00,
2013-06-15 19:17:00,51.5,49.0,29.96,North,360,0.0,0.0,90,0.00,,,0.00,23,weatherlink.com 1.10,2013-06-16 02:17:00,
2013-06-15 19:32:00,51.5,49.0,29.97,North,-999,0.0,0.0,90,0.00,,,0.00,16,weatherlink.com 1.10,2013-06-16 02:32:00,
2013-06-15 19:47:00,51.3,49.0,29.97,North,-999,0.0,0.0,90,0.00,,,0.00,14,weatherlink.com 1.10,2013-06-16 02:47:00,
2013-06-15 20:02:00,51.0,48.0,29.96,North,360,0.0,0.0,90,0.00,,,0.00,7,weatherlink.com 1.10,2013-06-16 03:02:00,
2013-06-15 20:17:00,50.8,48.0,29.96,North,-999,0.0,0.0,91,0.00,,,0.00,0,weatherlink.com 1.10,2013-06-16 03:17:00,
2013-06-15 20:32:00,50.6,48.0,29.97,North,-999,0.0,0.0,91,0.00,,,0.00,0,weatherlink.com 1.10,2013-06-16 03:32:00,
2013-06-15 20:47:00,50.3,48.0,29.97,North,-999,0.0,0.0,92,0.00,,,0.00,0,weatherlink.com 1.10,2013-06-16 03:47:00,
2013-06-15 21:02:00,50.2,48.0,29.97,North,360,0.0,0.0,92,0.00,,,0.00,0,weatherlink.com 1.10,2013-06-16 04:02:00,
2013-06-15 21:17:00,50.0,48.0,29.98,North,360,0.0,0.0,93,0.00,,,0.00,0,weatherlink.com 1.10,2013-06-16 04:17:00,
2013-06-15 21:32:00,49.9,48.0,29.98,North,360,0.0,0.0,93,0.00,,,0.00,0,weatherlink.com 1.10,2013-06-16 04:32:00,
2013-06-15 21:47:00,49.7,48.0,29.98,North,360,0.0,0.0,93,0.00,,,0.00,0,weatherlink.com 1.10,2013-06-16 04:47:00,
2013-06-15 22:02:00,49.7,48.0,29.99,North,360,0.0,0.0,93,0.00,,,0.00,0,weatherlink.com 1.10,2013-06-16 05:02:00,
2013-06-15 22:17:00,49.7,48.0,30.00,North,360,0.0,0.0,94,0.00,,,0.00,0,weatherlink.com 1.10,2013-06-16 05:17:00,
2013-06-15 22:32:00,49.6,48.0,30.00,North,-999,0.0,0.0,94,0.00,,,0.00,0,weatherlink.com 1.10,2013-06-16 05:32:00,
2013-06-15 22:47:00,49.6,48.0,30.00,North,-999,0.0,0.0,94,0.00,,,0.00,0,weatherlink.com 1.10,2013-06-16 05:47:00,
2013-06-15 23:02:00,49.8,48.0,30.00,North,-999,0.0,0.0,94,0.00,,,0.00,0,weatherlink.com 1.10,2013-06-16 06:02:00,
2013-06-15 23:17:00,49.9,48.0,30.00,North,-999,0.0,0.0,93,0.00,,,0.00,0,weatherlink.com 1.10,2013-06-16 06:17:00,
2013-06-15 23:32:00,50.0,48.0,30.00,North,-999,0.0,0.0,93,0.00,,,0.00,0,weatherlink.com 1.10,2013-06-16 06:32:00,
2013-06-15 23:47:00,50.0,48.0,30.00,North,-999,0.0,0.0,93,0.00,,,0.00,0,weatherlink.com 1.10,2013-06-16 06:47:00,